Duncan, OK

11:38 AM CDT on March 25, 2017 (GMT -0500)
Halliburton

Weather History for KDUC - February, 2013

Change the Weather History Date:

Sunday, February 24, 2013

  Actual Average (KLAW) Record (KLAW)
Temperature  
Mean Temperature 50 °F -  
Max Temperature 66 °F 59 °F 87 °F (1956)
Min Temperature 33 °F 34 °F 11 °F (1965)
Degree Days  
Heating Degree Days 16    
Moisture  
Dew Point 37 °F    
Average Humidity 64    
Maximum Humidity 93    
Minimum Humidity 37    
Precipitation  
Precipitation 0.00 in - - ()
Sea Level Pressure  
Sea Level Pressure 29.77 in    
Wind  
Wind Speed 12 mph (SE)    
Max Wind Speed 23 mph    
Max Gust Speed 30 mph    
Visibility 10 miles    
Events      
Averages and records for this station are not official NWS values.
T = Trace of Precipitation, MM = Missing Value Source: NWS Daily Summary

Daily Weather History Graph

Daily Weather History Graph

Search for Another Location

Airport or City:

Trip Planner

Search our weather history database for the weather conditions in past years. The results will help you decide how hot, cold, wet, or windy it might be!

Date:

Astronomy

Feb. 24, 2013 Rise Set
Actual Time 7:06 AM CST 6:23 PM CST
Civil Twilight 6:41 AM CST 6:49 PM CST
Nautical Twilight 6:12 AM CST 7:18 PM CST
Astronomical Twilight 5:42 AM CST 7:47 PM CST
Moon 5:36 PM CST (2/24) 6:03 AM CST (2/24)
Length of Visible Light 12h 07m
Length of Day
11h 17m
Waxing Gibbous, 99% of the Moon is Illuminated
Feb 24
Waxing Gibbous
Feb 25
Full
Mar 4
Last Quarter
Mar 11
New
Mar 19
First Quarter

Hourly Weather History & Observations

Time (CST) Temp. Windchill Dew Point Humidity Pressure Visibility Wind Dir Wind Speed Gust Speed Precip Events Conditions
12:15 AM 35.6 °F 29.2 °F 32.0 °F 87% 29.88 in 10.0 mi ESE 8.1 mph - N/A   Clear
12:35 AM 35.6 °F 29.2 °F 32.0 °F 87% 29.87 in 10.0 mi ESE 8.1 mph - N/A   Clear
12:55 AM 35.6 °F 28.6 °F 32.0 °F 87% 29.87 in 10.0 mi ESE 9.2 mph - N/A   Clear
1:15 AM 35.6 °F 29.2 °F 32.0 °F 87% 29.87 in 10.0 mi ESE 8.1 mph - N/A   Clear
1:35 AM 33.8 °F 27.7 °F 32.0 °F 93% 29.87 in 10.0 mi ESE 6.9 mph - N/A   Clear
1:55 AM 35.6 °F 29.9 °F 32.0 °F 87% 29.86 in 10.0 mi ESE 6.9 mph - N/A   Clear
2:15 AM 35.6 °F 29.9 °F 32.0 °F 87% 29.85 in 10.0 mi ESE 6.9 mph - N/A   Clear
2:35 AM 35.6 °F 29.9 °F 32.0 °F 87% 29.85 in 10.0 mi ESE 6.9 mph - N/A   Clear
2:55 AM 35.6 °F 29.9 °F 32.0 °F 87% 29.85 in 10.0 mi ESE 6.9 mph - N/A   Clear
3:15 AM 35.6 °F 29.9 °F 32.0 °F 87% 29.85 in 10.0 mi SE 6.9 mph - N/A   Clear
3:35 AM 35.6 °F 28.6 °F 32.0 °F 87% 29.84 in 10.0 mi SSE 9.2 mph - N/A   Clear
3:55 AM 35.6 °F 28.6 °F 32.0 °F 87% 29.85 in 10.0 mi SSE 9.2 mph - N/A   Clear
4:15 AM 35.6 °F 29.2 °F 32.0 °F 87% 29.85 in 10.0 mi SSE 8.1 mph - N/A   Clear
4:35 AM 35.6 °F 29.2 °F 32.0 °F 87% 29.85 in 10.0 mi SSE 8.1 mph - N/A   Clear
4:55 AM 35.6 °F 28.6 °F 32.0 °F 87% 29.85 in 10.0 mi SSE 9.2 mph - N/A   Clear
5:15 AM 35.6 °F 29.2 °F 32.0 °F 87% 29.85 in 10.0 mi SE 8.1 mph - N/A   Clear
5:35 AM 35.6 °F 28.6 °F 32.0 °F 87% 29.85 in 10.0 mi SE 9.2 mph - N/A   Clear
5:55 AM 33.8 °F 27.0 °F 32.0 °F 93% 29.84 in 10.0 mi ESE 8.1 mph - N/A   Clear
6:15 AM 33.8 °F 27.0 °F 32.0 °F 93% 29.84 in 10.0 mi ESE 8.1 mph - N/A   Clear
6:35 AM 33.8 °F 25.3 °F 32.0 °F 93% 29.83 in 10.0 mi ESE 11.5 mph - N/A   Clear
6:55 AM 33.8 °F 25.8 °F 32.0 °F 93% 29.84 in 10.0 mi ESE 10.4 mph - N/A   Clear
7:15 AM 35.6 °F 28.6 °F 32.0 °F 87% 29.85 in 10.0 mi SE 9.2 mph - N/A   Clear
7:35 AM 35.6 °F 29.2 °F 32.0 °F 87% 29.85 in 10.0 mi SE 8.1 mph - N/A   Clear
7:55 AM 39.2 °F 31.6 °F 32.0 °F 75% 29.86 in 10.0 mi SE 12.7 mph 19.6 mph N/A   Clear
8:15 AM 41.0 °F 33.9 °F 33.8 °F 76% 29.87 in 10.0 mi SE 12.7 mph - N/A   Clear
8:35 AM 42.8 °F 35.4 °F 35.6 °F 76% 29.87 in 10.0 mi SSE 15.0 mph 20.7 mph N/A   Clear
8:55 AM 44.6 °F 37.2 °F 35.6 °F 71% 29.87 in 10.0 mi SSE 17.3 mph 25.3 mph N/A   Clear
9:15 AM 46.4 °F 39.5 °F 37.4 °F 71% 29.87 in 10.0 mi SSE 17.3 mph 25.3 mph N/A   Clear
9:35 AM 48.2 °F - 37.4 °F 66% 29.86 in 10.0 mi SSE 19.6 mph 26.5 mph N/A   Clear
9:55 AM 50.0 °F - 39.2 °F 66% 29.85 in 10.0 mi SSE 18.4 mph 26.5 mph N/A   Clear
10:15 AM 51.8 °F - 39.2 °F 62% 29.84 in 10.0 mi SSE 19.6 mph 27.6 mph N/A   Clear
10:35 AM 53.6 °F - 37.4 °F 54% 29.84 in 10.0 mi SSE 17.3 mph 29.9 mph N/A   Clear
10:55 AM 55.4 °F - 37.4 °F 51% 29.84 in 10.0 mi SSE 17.3 mph 26.5 mph N/A   Clear
11:15 AM 55.4 °F - 37.4 °F 51% 29.83 in 10.0 mi SSE 20.7 mph 27.6 mph N/A   Clear
11:35 AM 57.2 °F - 39.2 °F 51% 29.83 in 10.0 mi SSE 19.6 mph 27.6 mph N/A   Clear
11:55 AM 59.0 °F - 39.2 °F 48% 29.82 in 10.0 mi SSE 16.1 mph 25.3 mph N/A   Clear
12:15 PM 60.8 °F - 41.0 °F 48% 29.81 in 10.0 mi SSE 17.3 mph 24.2 mph N/A   Clear
12:35 PM 62.6 °F - 39.2 °F 42% 29.79 in 10.0 mi South 21.9 mph 27.6 mph N/A   Clear
12:55 PM 62.6 °F - 37.4 °F 39% 29.77 in 10.0 mi SSE 19.6 mph 24.2 mph N/A   Clear
1:15 PM 62.6 °F - 39.2 °F 42% 29.76 in 10.0 mi SSE 19.6 mph 27.6 mph N/A   Clear
1:35 PM 64.4 °F - 37.4 °F 37% 29.74 in 10.0 mi South 23.0 mph 29.9 mph N/A   Scattered Clouds
1:55 PM 64.4 °F - 39.2 °F 40% 29.73 in 10.0 mi South 21.9 mph 28.8 mph N/A   Scattered Clouds
2:15 PM 64.4 °F - 39.2 °F 40% 29.71 in 10.0 mi SSE 19.6 mph 26.5 mph N/A   Scattered Clouds
2:35 PM 64.4 °F - 39.2 °F 40% 29.71 in 10.0 mi SSE 17.3 mph 27.6 mph N/A   Mostly Cloudy
2:55 PM 62.6 °F - 41.0 °F 45% 29.71 in 10.0 mi SSE 21.9 mph 25.3 mph N/A   Scattered Clouds
3:15 PM 64.4 °F - 41.0 °F 42% 29.70 in 10.0 mi SSE 17.3 mph 26.5 mph N/A   Clear
3:35 PM 64.4 °F - 41.0 °F 42% 29.70 in 10.0 mi SSE 15.0 mph - N/A   Clear
3:55 PM 64.4 °F - 41.0 °F 42% 29.69 in 10.0 mi SSE 15.0 mph - N/A   Clear
4:15 PM 66.2 °F - 41.0 °F 40% 29.69 in 10.0 mi South 16.1 mph 21.9 mph N/A   Clear
4:35 PM 64.4 °F - 41.0 °F 42% 29.68 in 10.0 mi SSE 18.4 mph 21.9 mph N/A   Clear
4:55 PM 64.4 °F - 41.0 °F 42% 29.66 in 10.0 mi SE 17.3 mph 21.9 mph N/A   Clear
5:15 PM 64.4 °F - 41.0 °F 42% 29.66 in 10.0 mi SSE 20.7 mph - N/A   Clear
5:35 PM 62.6 °F - 41.0 °F 45% 29.67 in 10.0 mi SSE 17.3 mph 25.3 mph N/A   Clear
5:55 PM 62.6 °F - 41.0 °F 45% 29.68 in 10.0 mi SE 12.7 mph 21.9 mph N/A   Clear
6:15 PM 60.8 °F - 41.0 °F 48% 29.68 in 10.0 mi SE 16.1 mph - N/A   Clear
6:35 PM 60.8 °F - 41.0 °F 48% 29.68 in 10.0 mi SE 15.0 mph - N/A   Clear
6:55 PM 59.0 °F - 41.0 °F 51% 29.68 in 10.0 mi SE 13.8 mph - N/A   Clear
7:15 PM 57.2 °F - 41.0 °F 55% 29.69 in 10.0 mi ESE 10.4 mph - N/A   Clear
7:35 PM 55.4 °F - 41.0 °F 58% 29.70 in 10.0 mi ESE 9.2 mph - N/A   Clear
7:55 PM 55.4 °F - 41.0 °F 58% 29.70 in 10.0 mi ESE 10.4 mph - N/A   Clear
8:15 PM 53.6 °F - 41.0 °F 62% 29.69 in 10.0 mi East 11.5 mph - N/A   Clear
8:35 PM 53.6 °F - 41.0 °F 62% 29.68 in 10.0 mi East 11.5 mph - N/A   Clear
8:55 PM 51.8 °F - 41.0 °F 67% 29.66 in 10.0 mi ESE 12.7 mph - N/A   Clear
9:15 PM 51.8 °F - 41.0 °F 67% 29.65 in 10.0 mi ESE 13.8 mph - N/A   Clear
9:35 PM 53.6 °F - 41.0 °F 62% 29.64 in 10.0 mi ESE 18.4 mph 23.0 mph N/A   Clear
9:55 PM 53.6 °F - 39.2 °F 58% 29.64 in 10.0 mi ESE 17.3 mph 21.9 mph N/A   Clear
10:15 PM 53.6 °F - 37.4 °F 54% 29.63 in 10.0 mi ESE 18.4 mph 23.0 mph N/A   Clear
10:35 PM 53.6 °F - 37.4 °F 54% 29.65 in 10.0 mi East 15.0 mph - N/A   Clear
10:55 PM 53.6 °F - 37.4 °F 54% 29.64 in 10.0 mi East 16.1 mph - N/A   Clear
11:15 PM 51.8 °F - 37.4 °F 58% 29.64 in 10.0 mi East 15.0 mph - N/A   Clear
11:35 PM 51.8 °F - 39.2 °F 62% 29.64 in 10.0 mi East 15.0 mph 18.4 mph N/A   Clear
11:55 PM 51.8 °F - 39.2 °F 62% 29.65 in 10.0 mi East 13.8 mph - N/A   Clear